TimePDT,TemperatureF,Dew PointF,Humidity,Sea Level PressureIn,VisibilityMPH,Wind Direction,Wind SpeedMPH,Gust SpeedMPH,PrecipitationIn,Events,Conditions,WindDirDegrees,DateUTC
12:56 AM,66.9,57.0,70,29.99,10.0,Calm,Calm,-,N/A,,Clear,0,2013-07-24 07:56:00
1:56 AM,66.9,55.9,68,29.99,10.0,NNW,4.6,-,N/A,,Clear,340,2013-07-24 08:56:00
2:56 AM,62.1,55.0,78,29.98,10.0,Calm,Calm,-,N/A,,Clear,0,2013-07-24 09:56:00
3:56 AM,61.0,55.0,81,30.00,10.0,Calm,Calm,-,N/A,,Clear,0,2013-07-24 10:56:00
4:56 AM,59.0,55.0,87,30.00,10.0,Calm,Calm,-,N/A,,Clear,0,2013-07-24 11:56:00
5:56 AM,57.9,54.0,87,30.01,10.0,Calm,Calm,-,N/A,,Clear,0,2013-07-24 12:56:00
6:56 AM,61.0,55.9,83,30.02,10.0,Calm,Calm,-,N/A,,Clear,0,2013-07-24 13:56:00
7:56 AM,68.0,55.9,65,30.02,10.0,NNW,4.6,-,N/A,,Clear,340,2013-07-24 14:56:00
8:56 AM,71.1,55.0,57,30.02,10.0,North,5.8,-,N/A,,Clear,10,2013-07-24 15:56:00
9:56 AM,75.0,54.0,48,30.02,10.0,NE,6.9,-,N/A,,Clear,50,2013-07-24 16:56:00
10:56 AM,79.0,54.0,42,30.01,8.0,Variable,6.9,-,N/A,,Clear,0,2013-07-24 17:56:00
11:56 AM,82.9,55.0,38,30.00,10.0,North,4.6,-,N/A,,Clear,360,2013-07-24 18:56:00
12:56 PM,86.0,55.0,35,29.99,10.0,North,6.9,-,N/A,,Clear,360,2013-07-24 19:56:00
1:56 PM,89.1,55.9,32,29.98,10.0,North,9.2,-,N/A,,Clear,350,2013-07-24 20:56:00
2:56 PM,91.0,52.0,26,29.97,10.0,Variable,6.9,18.4,N/A,,Clear,0,2013-07-24 21:56:00
3:56 PM,91.9,52.0,26,29.96,10.0,NE,8.1,-,N/A,,Clear,50,2013-07-24 22:56:00
4:56 PM,93.0,48.9,22,29.94,10.0,ENE,8.1,-,N/A,,Clear,60,2013-07-24 23:56:00
5:56 PM,93.0,46.9,20,29.94,10.0,North,5.8,-,N/A,,Clear,350,2013-07-25 00:56:00
6:56 PM,91.9,48.9,23,29.93,10.0,ENE,8.1,-,N/A,,Clear,60,2013-07-25 01:56:00
7:56 PM,88.0,50.0,27,29.94,10.0,NW,9.2,-,N/A,,Clear,310,2013-07-25 02:56:00
8:56 PM,80.1,51.1,36,29.96,10.0,NNW,9.2,-,N/A,,Clear,340,2013-07-25 03:56:00
9:56 PM,75.9,53.1,45,29.97,10.0,NNW,4.6,-,N/A,,Clear,330,2013-07-25 04:56:00
10:56 PM,72.0,54.0,53,29.98,10.0,North,4.6,-,N/A,,Clear,350,2013-07-25 05:56:00
11:56 PM,70.0,55.0,59,29.99,10.0,Calm,Calm,-,N/A,,Clear,0,2013-07-25 06:56:00